Weather Roundup
Issued by NWS Springfield, MO

Home | Current Version | Previous Version | Text Only | Print | Product List | Glossary On
Versions: 1 2 3 4 5 6 7 8 9 10 11 12 13 14 15 16 17 18 19 20 21 22 23 24 25 26 27 28 29 30 31 32 33 34 35 36 37 38 39 40 41 42 43 44 45 46 47 48 49 50
000
NZUS99 KSGF 250807
HRRSGF

HOURLY WEATHER
NATIONAL WEATHER SERVICE SPRINGFIELD MO
300 AM CDT MON MAY 25 2015

......SGF CWA......

CITY           SKY/WX    TMP DP  RH WIND       PRES   REMARKS
SPRINGFIELD    CLOUDY    63  60  90 SW10      29.92R
JOPLIN         CLOUDY    62  61  96 SW9       29.90F
WEST PLAINS    CLOUDY    68  64  87 S9        29.95R
ROLLA          CLOUDY    66  63  90 SW13      29.86R
OSAGE BEACH    CLOUDY    64  61  88 SW14      29.87R
BRANSON        MOCLDY    61  61 100 CALM      29.95R

......SURROUNDING SGF CWA......

CITY           SKY/WX    TMP DP  RH WIND       PRES   REMARKS
CHANUTE        CLOUDY    61  60  97 S14G20    29.86S
PARSONS        CLOUDY    62  61  96 S9G18     29.88S
COFFEYVILLE    CLOUDY    62  61  96 S9        29.88F
EMPORIA        MOCLDY    59  58  96 S7        29.82S
GROVE OK       MOCLDY    63  63 100 CALM      29.91S
ROGERS AR      MOCLDY    60  59  96 S5        29.95R
SILOAM SPRINGS CLEAR     59  54  82 SE5       29.94S
HARRISON AR    MOCLDY    63  61  93 S5        29.95R
NEAR YELLVILLE CLOUDY    66  63  88 CALM      29.92R

......KANSAS AND MISSOURI......

CITY           SKY/WX    TMP DP  RH WIND       PRES   REMARKS
KANSAS CTY INT LGT RAIN  62  62 100 S5        29.84S
DOWNTOWN KC    LGT RAIN  64  60  87 S6        29.84R
COLUMBIA       CLOUDY    64  64 100 S8        29.84S
SEDALIA        LGT RAIN  63  60  90 W7        29.86R
ST JOSEPH      LGT RAIN  63  62  97 S6        29.83R
ST LOUIS       CLOUDY    71  65  81 S10       29.87S
SPIRIT OF STL  CLOUDY    69  66  90 S6        29.86R
KIRKSVILLE     CLOUDY    63  62  97 SW3       29.81F
WICHITA        MOCLDY    60  58  92 S13       29.81F
TOPEKA         CLOUDY    62  60  93 SE6       29.82F
OLATHE         LGT RAIN  62  61  96 S6        29.84S

......TENNESSEE......

CITY           SKY/WX    TMP DP  RH WIND       PRES   REMARKS
MEMPHIS        LGT RAIN  70  66  87 S12       30.03S
NASHVILLE      CLOUDY    72  62  71 S12       30.10F

......ARKANSAS.......

CITY           SKY/WX    TMP DP  RH WIND       PRES   REMARKS
FAYETTEVILLE   PTCLDY    61  61 100 VRB3      29.94R
FT SMITH       CLOUDY    64  62  93 NE6       29.92S
LITTLE ROCK    CLOUDY    70  67  90 CALM      29.97R

......OKLAHOMA.......

CITY           SKY/WX    TMP DP  RH WIND       PRES   REMARKS
TULSA          CLOUDY    62  62 100 S7        29.86F FOG
PONCA CITY     MOCLDY    62  61  96 SE14      29.83F
MCALESTER      CLOUDY    64  63  96 VRB3      29.90F
OKLAHOMA CITY  PTCLDY    64  62  93 SE12      29.83F

......IOWA............

CITY           SKY/WX    TMP DP  RH WIND       PRES   REMARKS
DES MOINES     CLOUDY    64  61  90 SW10      29.76S

......ILLINOIS........

CITY           SKY/WX    TMP DP  RH WIND       PRES   REMARKS
QUINCY         LGT RAIN  67  65  93 SW9       29.79R
CHICAGO        CLOUDY    73  62  68 S21       29.84F



USA.gov is the U.S. government's official web portal to all federal, state and local government web resources and services.